ARIANE 40 R/B (22830 NORAD) Tracking and Keplerian Element Data

This shows tracking and keplerian element data for the satellite.

Feedback or suggestion? Click here.




ElementValue
Catalog22830
NameARIANE 40 R/B
Epoch Orbit31263
Epoch Day323.19153744
Epoch Year2018
RAAN354.4274
Inclination98.8433
Eccentricity0.0010532
Argument of Perigee203.9453
Mean Anonmoly156.124
Mean Motion14.31422753
Decay Rate7.2E-07
L11 22830U 93061H 18323.19153744 .00000072 00000-0 44554-4 0 9990
L22 22830 98.8433 354.4274 0010532 203.9453 156.1240 14.31422753312634

Live tracking and technical data element details for ARIANE 40 R/B (NORAD 22830). ARIANE 40 R/B can be tracked NOW for your location showing map with azimuth and elevation plus other details from your city location.

Track the satellite on the map from your city or location and see movement details for azimuth, elevation, latitude, longitude, range, height, and movement on the map or in text.







IsCatalogInMostPopularTable: catalog: 22830, numindb: 45
Update: records affected: 1



GetName: 22830 ARIANE 40 R/B

Hit Count: updated at: Wed, 21 Nov 2018 05:43:29 GMT